TimeCST,TemperatureF,Dew PointF,Humidity,Sea Level PressureIn,VisibilityMPH,Wind Direction,Wind SpeedMPH,Gust SpeedMPH,PrecipitationIn,Events,Conditions,WindDirDegrees,DateUTC
12:15 AM,21.2,21.2,100,30.05,5.0,Calm,Calm,-,N/A,,Clear,0,2013-02-24 06:15:00
12:35 AM,21.2,17.6,86,30.05,5.0,Calm,Calm,-,N/A,,Clear,0,2013-02-24 06:35:00
12:56 AM,21.2,19.4,93,30.07,5.0,Calm,Calm,-,N/A,,Clear,0,2013-02-24 06:56:00
1:15 AM,21.2,19.4,93,30.06,5.0,Calm,Calm,-,N/A,,Clear,0,2013-02-24 07:15:00
1:35 AM,21.2,19.4,93,30.06,5.0,Calm,Calm,-,N/A,,Clear,0,2013-02-24 07:35:00
1:55 AM,21.2,19.4,93,30.07,5.0,Calm,Calm,-,N/A,,Clear,0,2013-02-24 07:55:00
2:35 AM,21.2,17.6,86,30.08,5.0,Calm,Calm,-,N/A,,Clear,0,2013-02-24 08:35:00
2:55 AM,19.4,17.6,93,30.08,4.0,Calm,Calm,-,N/A,,Clear,0,2013-02-24 08:55:00
3:15 AM,21.2,19.4,93,30.08,5.0,Calm,Calm,-,N/A,,Clear,0,2013-02-24 09:15:00
3:35 AM,19.4,17.6,93,30.08,4.0,Calm,Calm,-,N/A,,Clear,0,2013-02-24 09:35:00
3:55 AM,19.4,17.6,93,30.08,5.0,Calm,Calm,-,N/A,,Clear,0,2013-02-24 09:55:00
4:15 AM,19.4,17.6,93,30.08,5.0,Calm,Calm,-,N/A,,Clear,0,2013-02-24 10:15:00
4:35 AM,19.4,17.6,93,30.09,5.0,Calm,Calm,-,N/A,,Clear,0,2013-02-24 10:35:00
4:55 AM,19.4,15.8,86,30.09,5.0,Calm,Calm,-,N/A,,Clear,0,2013-02-24 10:55:00
5:15 AM,19.4,17.6,93,30.09,5.0,Calm,Calm,-,N/A,,Clear,0,2013-02-24 11:15:00
5:35 AM,19.4,15.8,86,30.09,5.0,Calm,Calm,-,N/A,,Clear,0,2013-02-24 11:35:00
5:55 AM,19.4,15.8,86,30.10,5.0,Calm,Calm,-,N/A,,Clear,0,2013-02-24 11:55:00
6:35 AM,19.4,15.8,86,30.12,4.0,Calm,Calm,-,N/A,,Clear,0,2013-02-24 12:35:00
6:55 AM,19.4,15.8,86,30.14,5.0,Calm,Calm,-,N/A,,Clear,0,2013-02-24 12:55:00
7:15 AM,19.4,17.6,93,30.14,4.0,Calm,Calm,-,N/A,,Clear,0,2013-02-24 13:15:00
7:35 AM,23.0,19.4,86,30.15,5.0,Calm,Calm,-,N/A,,Clear,0,2013-02-24 13:35:00
7:55 AM,24.8,21.2,86,30.15,5.0,Calm,Calm,-,N/A,,Clear,0,2013-02-24 13:55:00
8:15 AM,26.6,21.2,80,30.16,5.0,Calm,Calm,-,N/A,,Clear,0,2013-02-24 14:15:00
8:35 AM,28.4,24.8,86,30.17,7.0,Calm,Calm,-,N/A,,Clear,0,2013-02-24 14:35:00
8:55 AM,30.2,24.8,80,30.17,10.0,Calm,Calm,-,N/A,,Clear,0,2013-02-24 14:55:00
9:15 AM,33.8,26.6,75,30.17,9.0,Calm,Calm,-,N/A,,Clear,0,2013-02-24 15:15:00
9:35 AM,35.6,24.8,65,30.16,10.0,ESE,3.5,-,N/A,,Clear,120,2013-02-24 15:35:00
9:55 AM,35.6,21.2,56,30.16,10.0,ENE,4.6,-,N/A,,Clear,70,2013-02-24 15:55:00
10:15 AM,37.4,24.8,60,30.16,10.0,NE,5.8,-,N/A,,Clear,40,2013-02-24 16:15:00
10:35 AM,37.4,24.8,60,30.16,10.0,NE,5.8,-,N/A,,Clear,40,2013-02-24 16:35:00
10:55 AM,37.4,24.8,60,30.17,10.0,Calm,Calm,-,N/A,,Clear,0,2013-02-24 16:55:00
11:15 AM,39.2,24.8,56,30.17,10.0,Calm,Calm,-,N/A,,Clear,0,2013-02-24 17:15:00
11:55 AM,41.0,24.8,53,30.16,10.0,East,5.8,-,N/A,,Clear,100,2013-02-24 17:55:00
12:15 PM,41.0,26.6,57,30.16,10.0,South,5.8,-,N/A,,Clear,170,2013-02-24 18:15:00
12:35 PM,42.8,24.8,49,30.16,10.0,SSW,5.8,-,N/A,,Clear,210,2013-02-24 18:35:00
12:56 PM,42.8,26.6,53,30.15,10.0,SE,5.8,-,N/A,,Clear,140,2013-02-24 18:56:00
1:15 PM,42.8,28.4,57,30.14,10.0,South,4.6,-,N/A,,Clear,170,2013-02-24 19:15:00
1:35 PM,44.6,28.4,53,30.14,10.0,ESE,4.6,-,N/A,,Clear,120,2013-02-24 19:35:00
1:55 PM,44.6,26.6,49,30.13,10.0,SSE,3.5,-,N/A,,Clear,150,2013-02-24 19:55:00
2:15 PM,44.6,28.4,53,30.12,10.0,SE,4.6,-,N/A,,Clear,130,2013-02-24 20:15:00
2:35 PM,44.6,28.4,53,30.12,10.0,SSE,5.8,-,N/A,,Clear,150,2013-02-24 20:35:00
2:55 PM,44.6,26.6,49,30.11,10.0,SE,5.8,-,N/A,,Clear,130,2013-02-24 20:55:00
3:15 PM,46.4,28.4,50,30.11,10.0,SE,5.8,-,N/A,,Clear,140,2013-02-24 21:15:00
3:35 PM,44.6,28.4,53,30.11,10.0,ESE,5.8,-,N/A,,Clear,110,2013-02-24 21:35:00
3:55 PM,44.6,28.4,53,30.11,10.0,ESE,8.1,-,N/A,,Clear,120,2013-02-24 21:55:00
4:15 PM,44.6,28.4,53,30.11,10.0,East,8.1,-,N/A,,Clear,90,2013-02-24 22:15:00
4:35 PM,44.6,28.4,53,30.11,10.0,East,9.2,-,N/A,,Clear,100,2013-02-24 22:35:00
4:55 PM,42.8,28.4,57,30.11,10.0,East,6.9,-,N/A,,Clear,90,2013-02-24 22:55:00
5:15 PM,42.8,28.4,57,30.11,10.0,East,5.8,-,N/A,,Clear,100,2013-02-24 23:15:00
5:35 PM,39.2,28.4,65,30.11,10.0,ENE,4.6,-,N/A,,Clear,70,2013-02-24 23:35:00
5:55 PM,37.4,28.4,70,30.11,10.0,ENE,3.5,-,N/A,,Clear,60,2013-02-24 23:55:00
6:15 PM,37.4,26.6,65,30.11,10.0,ENE,3.5,-,N/A,,Clear,70,2013-02-25 00:15:00
6:55 PM,35.6,26.6,70,30.12,10.0,NE,3.5,-,N/A,,Clear,50,2013-02-25 00:55:00
7:15 PM,32.0,26.6,80,30.12,10.0,NE,3.5,-,N/A,,Clear,40,2013-02-25 01:15:00
7:35 PM,33.8,26.6,75,30.12,10.0,Calm,Calm,-,N/A,,Clear,0,2013-02-25 01:35:00
7:55 PM,30.2,26.6,86,30.12,10.0,NE,3.5,-,N/A,,Clear,50,2013-02-25 01:55:00
8:15 PM,33.8,26.6,75,30.12,10.0,ENE,3.5,-,N/A,,Clear,60,2013-02-25 02:15:00
8:35 PM,33.8,26.6,75,30.11,10.0,ENE,3.5,-,N/A,,Clear,70,2013-02-25 02:35:00
8:55 PM,33.8,26.6,75,30.11,10.0,East,3.5,-,N/A,,Clear,80,2013-02-25 02:55:00
9:15 PM,33.8,26.6,75,30.11,10.0,ENE,4.6,-,N/A,,Clear,60,2013-02-25 03:15:00
9:35 PM,33.8,26.6,75,30.10,10.0,NE,5.8,-,N/A,,Clear,50,2013-02-25 03:35:00
9:55 PM,33.8,26.6,75,30.10,10.0,NE,4.6,-,N/A,,Clear,50,2013-02-25 03:55:00
10:15 PM,33.8,24.8,70,30.10,10.0,ENE,3.5,-,N/A,,Clear,60,2013-02-25 04:15:00
10:35 PM,33.8,26.6,75,30.09,10.0,NE,4.6,-,N/A,,Clear,40,2013-02-25 04:35:00
10:55 PM,33.8,26.6,75,30.09,10.0,NE,4.6,-,N/A,,Clear,50,2013-02-25 04:55:00
11:15 PM,32.0,24.8,75,30.08,10.0,NE,4.6,-,N/A,,Clear,50,2013-02-25 05:15:00
11:35 PM,32.0,26.6,80,30.07,10.0,NE,8.1,-,N/A,,Clear,40,2013-02-25 05:35:00
11:55 PM,32.0,26.6,80,30.07,10.0,ENE,8.1,-,N/A,,Clear,60,2013-02-25 05:55:00